Weather in Nenashevo

Russia / Tula Oblast     54°34′42″N   37°27′37″E
temp.,
°C
wind,
m/s
gust,
m/s
humid.,
%
clouds,
%
prec.,
mm/h
press.,
hPa
HPBL,
m
6 may, thu
thu600:00+9ssw61584100 0.0 1009339
03:00+8s51388100 0.0 1009300
06:00+9s61588100 0.1 1008366
09:00+12ssw91669100 0.2 10071108
12:00+14ssw111770100 0.4 10061953
15:00+14ssw11186191 0.4 10051686
18:00+9ssw91688100 0.8 1006895
21:00+7sw4991100 1.3 1009441
7 may, fri
fri700:00+6sw41095100 0.0 1010308
03:00+5sw4995100 0.0 1011261
06:00+5wsw41090100 0.0 1012352
09:00+9w68647 0.0 1013840
12:00+12wsw57465 0.0 10131816
15:00+14sw684273 0.0 10132296
18:00+12ssw5958100 0.0 1013595
21:00+9s5126281 0.0 1013332
8 may, sat
sat800:00+8sse6146385 0.0 1012387
03:00+9sse71661100 0.0 1010563
06:00+8sse81673100 0.5 1008833
09:00+8sse81694100 3.8 1006971
12:00+9s71395100 2.1 1004791
15:00+9ssw5998100 5.2 1003509
18:00+10sw61189100 1.1 1004702
21:00+6wsw81387100 1.2 1006686
9 may, sun
sun900:00+3wsw71397100 0.0 1008586
03:00+5w71287100 0.1 10101084
06:00+4w5992100 0.1 1013741
09:00+5wnw5881100 0.2 1016980
12:00+8wnw676556 0.0 10181271
15:00+9nw676199 0.1 10201585
18:00+9nw47645 0.0 10221253
21:00+5nw22753 0.0 102410
10 may, mon
mon1000:00+4nw22761 0.0 102610
03:00+2n33770 0.0 102933
06:00+3n35765 0.0 103195
09:00+10nne34575 0.0 1031475
12:00+13nne344529 0.0 10311293
15:00+14ne34420 0.0 10301521
18:00+13ene35595 0.0 1030496
21:00+8ne22690 0.0 103114